Showing default

HAWK-A, 43765

Orbit data source: Space-Track

HAWK-A, 43765 is a payload satellite owned by HawkEye 360 (US) in SSO that was launched on Mon, 03 Dec 2018 UTC via an FALCON 9 launch vehicle from the Air Force Western Test Range (AFWTR). Payload-class satellites include a variety of spacecraft equipped with specific instruments for various scientific and technological missions. These include communications satellites like Starlink; space stations such as the ISS; scientific satellites like the Hubble; Earth observation satellites from companies like Planet Labs, Umbra, and HawkEye 360; GPS; miniature CubeSats for education and research; and military/defense satellites.

Loading next visibility...
Identifier
43765, 2018-099H
Orbit
SSO
Country
Flag of USUS
Related business
Manufacturer
UTIAS-SFL
Mission
Operational Commercial Sigint
Bus & Motor
NEMO-V1, Unknown motor
Mass
12.75 kg wet, 12 kg dry
Launch date (UTC)
2018-12-03 (7 years ago)
Launch vehicle
FALCON 9
Launch site
Air Force Western Test Range (AFWTR)
Object type
Payload
Rocket body
Debris
Shape & HBR
Box + 2 Pan, 1.0 m
Radar Cross Section
0.348 m², Medium (>0.1 m² and < 1m²)

Expand to show TLE details & history
Last TLE update: 16 hours ago

TLE from 16 hours ago
0 HAWK-A
1 43765U 18099H   25340.60350365  .00014090  00000-0  61911-3 0  9999
2 43765  97.4218  30.4400 0035956 241.0512 118.7117 15.21428091383780
Epoch: 2025-12-06T14:29Z
TLE epoch observation values (Epoch: 2025-12-06T14:29:02.715Z)
Latitude
0.00001°
Longitude
97.54982°
Altitude
516.578 km
Speed
7.599 km/s
True Right ascension
02h 01m 45s
True Declination
0° 00' 00"
Sunlit
Object was in full shadow at epoch
Visualization orbit readout
Latitude
Unknown
Longitude
Unknown
Altitude
Unknown
Speed
Unknown
Apparent Right ascension
Unknown
Apparent Declination
Unknown
Sunlit
N/A
Visualization observer readout
Local Sidereal Time
04:08:05
Azimuth
Unknown
Elevation
Unknown
Doppler factor
Unknown
Orbital elements
Apogee altitude
523.222 km
Perigee altitude
473.771 km
Semi-major axis
6,876.634 km
Eccentricity
0.0036
Inclination
97.4218°
RAAN
30.44°
Arg. of periapsis
241.0512°
True anomaly
119.07229°
Mean anomaly
118.7117°
Eccentric anomaly
118.89207°
Mean motion
3.80609 °/min
Orbital period
94.59 mins
BSTAR
0.00061911
Loading maneuver chart data...
Computing Atmospheric mass density...
Loading historical data...
Loading historical data...
Loading historical data...
Loading historical data...
Loading historical data...
Loading historical data...
Loading historical data...

Documentation

Showing up to 5 results
|